This is the latest recevied weather packets stored in our database for station/object AB2HM. If no packets are shown the sender has not sent any weather packets the latest 10 day(s).
| Time | Temp. | Humidity | Pressure | Rain* | Wind** | Luminosity | Snow |
|---|---|---|---|---|---|---|---|
| 1788490545 | 26.67° C | 80% | 1014.9 hPa | 0 mm | - | - | - |
| 1788488733 | 26.67° C | 78% | 1014.7 hPa | 0 mm | - | - | - |
| 1788486914 | 26.67° C | 76% | 1014.9 hPa | 0 mm | - | - | - |
| 1788485101 | 27.22° C | 75% | 1015.2 hPa | 0 mm | - | - | - |
| 1788483299 | 27.22° C | 74% | 1015.4 hPa | 0 mm | - | - | - |
| 1788481491 | 27.78° C | 74% | 1014.8 hPa | 0 mm | - | - | - |
| 1788479681 | 27.78° C | 73% | 1014.8 hPa | 0 mm | - | - | - |
| 1788477881 | 28.33° C | 72% | 1014.5 hPa | 0 mm | - | - | - |
| 1788476050 | 28.89° C | 70% | 1014.4 hPa | 0 mm | - | - | - |
| 1788474247 | 29.44° C | 68% | 1014.1 hPa | 0 mm | - | - | - |
| 1788472441 | 30° C | 66% | 1014.1 hPa | 0 mm | - | - | - |
| 1788470636 | 30.56° C | 63% | 1013.9 hPa | 0 mm | - | - | - |
| 1788468826 | 31.11° C | 63% | 1014.1 hPa | 0 mm | - | - | - |
| 1788467026 | 31.11° C | 62% | 1014.3 hPa | 0 mm | - | - | - |
| 1788465213 | 31.67° C | 62% | 1014.6 hPa | 0 mm | - | - | - |
| 1788463397 | 30.56° C | 62% | 1015 hPa | 0 mm | - | - | - |
| 1788461588 | 30.56° C | 62% | 1015.5 hPa | 0 mm | - | - | - |
| 1788459781 | 30.56° C | 62% | 1015.4 hPa | 0 mm | - | - | - |
| 1788457981 | 30° C | 65% | 1015.7 hPa | 0 mm | - | - | - |
| 1788456180 | 28.89° C | 69% | 1016.1 hPa | 0 mm | - | - | - |
| 1788454380 | 29.44° C | 68% | 1016.7 hPa | 0 mm | - | - | - |
| 1788452575 | 28.89° C | 72% | 1017.3 hPa | 0 mm | - | - | - |
| 1788450751 | 28.33° C | 74% | 1017.4 hPa | 0 mm | - | - | - |
| 1788448942 | 27.78° C | 78% | 1017.6 hPa | 0 mm | - | - | - |
| 1788447126 | 26.67° C | 82% | 1017.3 hPa | 0 mm | - | - | - |
* Rain latest hour (hover to see other rain measurements)
** Current wind speed in m/s (hover to see current wind gust speed)